Location: Newark
(28.4500°N, 16.2500°W)
Time: 06:41:31
(UTC+00:00)

JUGNU - Pass Details

Date: 24 October 2019
Orbit: 836 x 864 km, 20.0° (Epoch: 18 November)

Event Time Altitude Azimuth Distance (km) Brightness Sun altitude
Rises 18:53:21 0° 209° (SSW) 3,379 ? -6.5°
Reaches altitude 10° 18:58:11 10° 174° (S) 2,454 ? -7.6°
Maximum altitude 18:59:40 11° 159° (SSE) 2,391 ? -7.9°
Drops below altitude 10° 19:01:09 10° 144° (SE) 2,461 ? -8.2°
Enters shadow 19:04:29 - 118° (ESE) 3,021 ? -8.9°
